Goldsboro, NC

10:04 AM EST on December 03, 2016 (GMT -0500)
Seymour Johnson Air Force Base

Weather History for KGSB - May, 2013

Change the Weather History Date:

Sunday, May 26, 2013

  Actual Average Record
Temperature  
Mean Temperature 63 °F -  
Max Temperature 73 °F 81 °F 93 °F (2004)
Min Temperature 53 °F 61 °F 53 °F (2013)
Degree Days  
Heating Degree Days 2    
Growing Degree Days 13 (Base 50)    
Moisture  
Dew Point 45 °F    
Average Humidity 57    
Maximum Humidity 86    
Minimum Humidity 35    
Precipitation  
Precipitation 0.00 in - - ()
Sea Level Pressure  
Sea Level Pressure 30.21 in    
Wind  
Wind Speed 4 mph (North)    
Max Wind Speed 10 mph    
Max Gust Speed -    
Visibility 10 miles    
Events      
Averages and records for this station are not official NWS values.
T = Trace of Precipitation, MM = Missing Value Source: NWS Daily Summary

Daily Weather History Graph

Daily Weather History Graph

Search for Another Location

Airport or City:

Trip Planner

Search our weather history database for the weather conditions in past years. The results will help you decide how hot, cold, wet, or windy it might be!

Date:

Astronomy

May. 26, 2013 Rise Set
Actual Time 6:00 AM EDT 8:17 PM EDT
Civil Twilight 5:31 AM EDT 8:46 PM EDT
Nautical Twilight 4:55 AM EDT 9:22 PM EDT
Astronomical Twilight 4:17 AM EDT 10:01 PM EDT
Moon 10:04 PM EDT (5/26) 7:27 AM EDT (5/26)
Length of Visible Light 15h 15m
Length of Day
14h 17m
Waning Gibbous, 97% of the Moon is Illuminated
May 26
Waning Gibbous
May 31
Last Quarter
Jun 8
New
Jun 16
First Quarter
Jun 23
Full

Hourly Weather History & Observations

Time (EDT) Temp. Dew Point Humidity Pressure Visibility Wind Dir Wind Speed Gust Speed Precip Events Conditions
12:58 AM 53.4 °F 48.9 °F 85% 30.19 in 10.0 mi East 2.3 mph - N/A   Clear
1:58 AM 54.9 °F 48.6 °F 79% 30.18 in 10.0 mi North 2.3 mph - N/A   Clear
2:58 AM 53.8 °F 47.5 °F 79% 30.18 in 10.0 mi WNW 1.2 mph - N/A   Clear
3:58 AM 55.6 °F 42.6 °F 62% 30.18 in 10.0 mi NNW 5.8 mph - N/A   Clear
4:58 AM 54.9 °F 41.2 °F 60% 30.18 in 10.0 mi North 5.8 mph - N/A   Clear
5:58 AM 53.8 °F 41.2 °F 62% 30.20 in 10.0 mi North 5.8 mph - N/A   Clear
6:58 AM 53.1 °F 42.3 °F 67% 30.23 in 10.0 mi North 4.6 mph - N/A   Partly Cloudy
7:58 AM 55.8 °F 43.5 °F 63% 30.23 in 10.0 mi NNE 5.8 mph - N/A   Overcast
8:58 AM 58.5 °F 43.5 °F 58% 30.26 in 10.0 mi NNE 6.9 mph - N/A   Scattered Clouds
9:58 AM 60.4 °F 43.5 °F 54% 30.27 in 10.0 mi NNE 5.8 mph - N/A   Mostly Cloudy
10:58 AM 63.1 °F 43.9 °F 49% 30.27 in 10.0 mi North 4.6 mph - N/A   Mostly Cloudy
11:58 AM 66.2 °F 44.6 °F 46% 30.26 in 10.0 mi Variable 6.9 mph - N/A   Partly Cloudy
12:58 PM 67.6 °F 41.9 °F 39% 30.24 in 10.0 mi Variable 2.3 mph - N/A   Mostly Cloudy
1:58 PM 70.5 °F 43.2 °F 37% 30.22 in 10.0 mi Calm Calm - N/A   Mostly Cloudy
2:58 PM 70.7 °F 41.7 °F 35% 30.20 in 10.0 mi Variable 4.6 mph - N/A   Clear
3:58 PM 73.0 °F 44.6 °F 36% 30.20 in 10.0 mi West 10.4 mph - N/A   Clear
4:58 PM 72.5 °F 43.3 °F 35% 30.18 in 10.0 mi NNW 8.1 mph - N/A   Clear
5:58 PM 72.9 °F 43.9 °F 35% 30.19 in 10.0 mi NW 2.3 mph - N/A   Clear
6:58 PM 72.1 °F 43.2 °F 35% 30.19 in 10.0 mi WNW 5.8 mph - N/A   Clear
7:58 PM 68.0 °F 48.0 °F 49% 30.20 in 10.0 mi WSW 4.6 mph - N/A   Clear
8:58 PM 63.5 °F 48.9 °F 59% 30.21 in 10.0 mi Calm Calm - N/A   Clear
9:58 PM 59.0 °F 50.5 °F 73% 30.22 in 10.0 mi ENE 2.3 mph - N/A   Clear
10:58 PM 55.6 °F 49.6 °F 80% 30.23 in 10.0 mi ENE 3.5 mph - N/A   Clear
11:58 PM 54.7 °F 50.5 °F 86% 30.23 in 10.0 mi ENE 3.5 mph - N/A   Clear